Regional Weather Roundup
Issued by NWS

Home | Current Version | Previous Version | Graphics & Text | Print | Product List | Glossary Off
Versions: 1 2 3 4 5 6 7 8 9 10 11 12 13 14 15 16 17 18 19 20 21 22 23 24 25 26 27 28 29 30 31 32 33 34 35 36 37 38 39 40 41 42 43 44 45 46 47 48 49 50

000
ASUS43 KMKX 191321
RWRWI

WISCONSIN REGIONAL WEATHER ROUNDUP
NATIONAL WEATHER SERVICE MILWAUKEE/SULLIVAN WI
800 AM CDT FRI SEP 19 2014

NOTE: "FAIR" INDICATES FEW OR NO CLOUDS BELOW 12,000 FEET WITH NO
SIGNIFICANT WEATHER AND/OR OBSTRUCTIONS TO VISIBILITY.

WIZ001-002-006>008-014>016-023>028-191400-
NORTHWEST WISCONSIN

CITY           SKY/WX    TMP DP  RH WIND       PRES   REMARKS
SUPERIOR ARPT  CLOUDY    56  53  90 SW9       29.86F
ASHLAND        CLOUDY    57  50  77 S12G18    29.91F
HAYWARD        PTSUNNY   59  50  72 S15G24    29.95F
SIREN          CLOUDY    58  50  76 S13G20    29.91F
RICE LAKE      MOSUNNY   53  51  92 SE9       29.99F
LADYSMITH      PTSUNNY   55  52  88 S9        30.01F
EAU CLAIRE     PTSUNNY   56  52  86 SE13      29.99F
MENOMONIE      PTSUNNY   54  52  95 SE8       29.99F FOG
NEW RICHMOND   PTSUNNY   57  49  75 S12       29.95F
OSCEOLA        PTSUNNY   58  50  74 S12G17    29.95F
$$

WIZ003>005-009-010-017-018-191400-
NORTH CENTRAL WISCONSIN

CITY           SKY/WX    TMP DP  RH WIND       PRES   REMARKS
WOODRUFF       PTSUNNY   55  51  87 S13       30.03F
RHINELANDER    PTSUNNY   50  48  93 S8        30.06F FOG
EAGLE RIVER    CLOUDY    50  49  98 S8        30.03F FOG
LAND O LAKES   PTSUNNY   51  49  93 S9        30.03F
PHILLIPS       CLOUDY    52  49  91 S13       30.00F
TOMAHAWK       CLOUDY    50  49  95 S3        30.06F FOG
MEDFORD        CLOUDY    49  48  97 S8        30.06F FOG
MERRILL        CLOUDY    50  50  99 S6        30.07F FOG
$$

WIZ029-030-035-036-043>047-191400-
CENTRAL WISCONSIN

CITY           SKY/WX    TMP DP  RH WIND       PRES   REMARKS
WAUSAU         CLOUDY    50  49  96 S10       30.08F FOG
MOSINEE        CLOUDY    48  48 100 S7        30.11R FOG
MARSHFIELD     CLOUDY    51  50  96 S9        30.08S FOG
STEVENS POINT  CLOUDY    49  48  99 S8        30.11S FOG
WAUPACA        CLOUDY    53  51  95 SE5       30.12F FOG
WAUTOMA        CLOUDY    54  54 100 S6        30.13S FOG
WISC RAPIDS    CLOUDY    52  50  93 S7        30.11R FOG
CAMP DOUGLAS   CLOUDY    48  48 100 SE5       30.10R FOG
$$

WIZ011>013-019>022-031-037>040-048>050-191400-
NORTHEAST WISCONSIN

CITY           SKY/WX    TMP DP  RH WIND       PRES   REMARKS
ANTIGO         FOG       47  47 100 S10       30.10S VSB 1/2
STURGEON BAY   CLOUDY    57  54  88 S13       30.13S
GREEN BAY      CLOUDY    55  55 100 S9        30.13F FOG
MANITOWOC      CLOUDY    59  58  96 S12       30.15S FOG
APPLETON       CLOUDY    55  54  94 S8        30.14S FOG
CLINTONVILLE   FOG       52  52 100 S9        30.11F VSB 3/4
OSHKOSH        CLOUDY    56  55  97 S12       30.13S FOG
$$

WIZ032>034-041-042-053>061-191400-
SOUTHWEST WISCONSIN

CITY           SKY/WX    TMP DP  RH WIND       PRES   REMARKS
LA CROSSE      SUNNY     57  51  80 S9        30.05R
SPARTA         MOSUNNY   55  49  80 S9G16     30.07S
VIROQUA        FAIR      51  51 100 SE8       30.08S
BOSCOBEL       MOSUNNY   54  50  86 VRB3      30.10S FOG
PRAIRIE DU CHI SUNNY     53  50  92 E3        30.09R FOG
PLATTEVILLE    FAIR      51  50  97 CALM      30.11S
$$

WIZ056-057-062-063-064-067-068-191400-
SOUTH CENTRAL WISCONSIN

CITY           SKY/WX    TMP DP  RH WIND       PRES   REMARKS
BARABOO/DELLS  MOSUNNY   52  50  93 S3        30.11S FOG
LONE ROCK      MOSUNNY   54  49  83 E6        30.11R HAZE
WATERTOWN      PTSUNNY   54  54 100 SE3       30.13S FOG
MADISON        PTSUNNY   57  54  89 S8        30.13R FOG
MIDDLETON      CLOUDY    56  55  95 S7        30.13R
MONROE         CLOUDY    54  54 100 S7        30.12S FOG
JANESVILLE     SUNNY     57  54  88 S6        30.13R FOG
$$

WIZ051-052-058>065-066-070>072-191400-
SOUTHEAST WISCONSIN

CITY           SKY/WX    TMP DP  RH WIND       PRES   REMARKS
MILWAUKEE      PTSUNNY   57  54  89 S7        30.16R
WAUKESHA       SUNNY     54  54 100 SE3       30.16S
MILWAUKEE/TIMM SUNNY     54  52  94 S5        30.16S FOG
RACINE         SUNNY     60  54  80 S9        30.17S
BURLINGTON     FOG       49  49 100 CALM      30.15R VSB 1/4
KENOSHA        SUNNY     56  52  86 S6        30.16S FOG
FOND DU LAC    MOSUNNY   56  54  93 S5        30.14S FOG
SHEBOYGAN      FOG       53  52  96 SW3       30.15S VSB<1/4
WEST BEND      FOG       54  52  94 S3        30.15S VSB<1/4
JUNEAU         CLOUDY    55  54  97 SE6       30.14F FOG
$$

LSZ147-162-191400-
LAKE SUPERIOR

STATION/POSITION TIME  TEMP    WIND        PRES    WAVE
                       AIR SEA DIR/SP/G            HT/PER
                 (UTC) (F)     (DEG/KT/KT) (MB)    (FT/S)
W MID LAKE BUOY  1250   53 48  190/ 17/ 19 1012.3F   3/ 5
DEVILS ISLAND    1300   57     190/ 12/ 17 1011.7F
PORT WING        1220   58     180/ 12/ 21 1012.2F
SAXON HARBOR     1300   60     190/  8/ 20 1012.9F
$$

LMZ867-665-643>646-191400-
LAKE MICHIGAN

STATION/POSITION TIME  TEMP    WIND        PRES    WAVE
                       AIR SEA DIR/SP/G            HT/PER
                 (UTC) (F)     (DEG/KT/KT) (MB)    (FT/S)
N MID LAKE BUOY  1250   55 58  180/ 19/ 23 1020.6F   3/ 5
NORTHPORT PIER   1300   57     160/  9/ 17 1020.0F
KEWAUNEE LAKESHO 1300   54     180/  8/ 10 1019.6F
SHEBOYGAN LAKESH 1300   56 50  160/ 12/ 12 1021.4R
PORT WASHINGTON  1240   63     200/  1/  3 1021.7R
ATWATER BUOY     1300   59     170/  8/ 10 1022.1R
MILWAUKEE LAKESH 1300   59     180/  4/  5   N/A
S MID LAKE BUOY  1250   61 64  160/ 17/ 19 1021.7R   3/ 5
KENOSHA   LAKESH 1300   60     180/  7/ 10 1021.0S
$$

TC  - TEMPERATURE IN CELSIUS
VSB - VISIBILITY IN STATUTE MILES
WCI - WIND CHILL INDEX
HX  - HEAT INDEX




USA.gov is the U.S. government's official web portal to all federal, state and local government web resources and services.